This is the latest recevied weather packets stored in our database for station/object WA4OPQ-3. If no packets are shown the sender has not sent any weather packets the latest 10 day(s).
| Time | Temp. | Humidity | Pressure | Rain* | Wind** | Luminosity | Snow |
|---|---|---|---|---|---|---|---|
| 1777850121 | 18.33° C | 49% | 1015.2 hPa | 0 mm | - | 32 W/m² | - |
| 1777849516 | 18.33° C | 49% | 1015.4 hPa | 0 mm | - | 34 W/m² | - |
| 1777848911 | 18.33° C | 46% | 1015.1 hPa | 0 mm | - | 36 W/m² | - |
| 1777848305 | 18.89° C | 45% | 1015.4 hPa | 0 mm | - | 39 W/m² | - |
| 1777847700 | 18.89° C | 43% | 1015.4 hPa | 0 mm | - | 41 W/m² | - |
| 1777847096 | 19.44° C | 46% | 1015.6 hPa | 0 mm | - | 43 W/m² | - |
| 1777846492 | 19.44° C | 46% | 1015.7 hPa | 0 mm | - | 45 W/m² | - |
| 1777845887 | 19.44° C | 43% | 1015.9 hPa | 0 mm | - | 49 W/m² | - |
| 1777845280 | 19.44° C | 42% | 1015.9 hPa | 0 mm | - | 72 W/m² | - |
| 1777844676 | 19.44° C | 41% | 1016.4 hPa | 0 mm | - | 63 W/m² | - |
| 1777844071 | 20.56° C | 43% | 1016.3 hPa | 0 mm | - | 122 W/m² | - |
| 1777843466 | 20.56° C | 42% | 1016.5 hPa | 0 mm | - | 479 W/m² | - |
| 1777842860 | 21.11° C | 39% | 1016.7 hPa | 0 mm | - | 521 W/m² | - |
| 1777842255 | 20.56° C | 38% | 1016.8 hPa | 0 mm | - | 518 W/m² | - |
| 1777841650 | 21.11° C | 40% | 1016.9 hPa | 0 mm | - | 551 W/m² | - |
| 1777841046 | 21.11° C | 39% | 1017 hPa | 0 mm | - | 580 W/m² | - |
| 1777840441 | 21.11° C | 39% | 1017.2 hPa | 0 mm | - | 586 W/m² | - |
| 1777839836 | 21.11° C | 39% | 1017.2 hPa | 0 mm | - | 613 W/m² | - |
| 1777839231 | 20.56° C | 39% | 1017.3 hPa | 0 mm | - | 644 W/m² | - |
| 1777838625 | 20.56° C | 39% | 1017.7 hPa | 0 mm | - | 656 W/m² | - |
| 1777838020 | 20° C | 40% | 1017.9 hPa | 0 mm | - | 629 W/m² | - |
| 1777837417 | 20.56° C | 38% | 1018 hPa | 0 mm | - | 694 W/m² | - |
| 1777836812 | 20° C | 37% | 1018.4 hPa | 0 mm | - | 703 W/m² | - |
| 1777836206 | 20° C | 41% | 1018.6 hPa | 0 mm | - | 695 W/m² | - |
| 1777835602 | 19.44° C | 40% | 1018.5 hPa | 0 mm | - | 688 W/m² | - |
* Rain latest hour (hover to see other rain measurements)
** Current wind speed in m/s (hover to see current wind gust speed)